Location: *
(47.2969°N, 10.2930°E)
Time: 08:05:45
(UTC+00:00)

Iridium 4 Rocket - Visible Passes

Search period start: 11 August 2020 00:00
Search period end: 21 August 2020 00:00
Orbit: 583 x 906 km, 86.9° (Epoch: 10 August)

Date Brightness Start Highest point End Pass type
(mag) Time Alt. Az. Time Alt. Az. Time Alt. Az.
11 Aug 5.0 20:12:08 13° E 20:12:38 13° ENE 20:14:41 10° NE visible
11 Aug 3.3 21:51:54 58° WSW 21:52:09 60° W 21:56:18 10° N visible
12 Aug 3.1 21:08:41 53° E 21:08:54 54° E 21:12:59 10° NNE visible
12 Aug 5.4 22:48:27 14° W 22:49:14 15° WNW 22:51:37 10° NW visible
13 Aug 4.3 20:25:27 22° E 20:25:50 22° E 20:29:06 10° NNE visible
13 Aug 4.3 22:05:13 32° W 22:05:40 33° W 22:09:28 10° NNW visible
14 Aug 2.9 21:21:59 75° SSW 21:22:17 83° W 21:26:28 10° N visible
15 Aug 3.5 20:38:44 37° E 20:39:07 38° E 20:42:59 10° NNE visible
15 Aug 5.1 22:18:30 18° W 22:19:16 19° WNW 22:22:19 10° NNW visible
16 Aug 4.7 19:55:28 16° E 19:56:08 16° E 19:58:46 10° NE visible
16 Aug 3.7 21:35:14 43° WSW 21:35:45 45° W 21:39:46 10° N visible
17 Aug 2.8 20:51:57 62° SE 20:52:27 70° E 20:56:36 10° N visible
17 Aug 5.7 22:31:43 10° W 22:32:59 11° WNW 22:34:18 10° NW visible
18 Aug 4.0 20:08:40 26° E 20:09:21 28° E 20:12:54 10° NNE visible
18 Aug 4.7 21:48:26 24° W 21:49:19 26° WNW 21:52:50 10° NNW visible
19 Aug 5.0 19:25:22 11° E 19:26:28 12° ENE 19:28:02 10° NE visible
19 Aug 3.2 21:05:08 52° SW 21:05:52 64° W 21:10:01 10° N visible
20 Aug 3.2 20:21:49 42° SE 20:22:38 49° E 20:26:41 10° NNE visible
20 Aug 5.4 22:01:35 13° W 22:02:59 15° WNW 22:05:29 10° NW visible
